| time (UTC) | temp C | wind direction | speed KPH | gust KPH | rain 1hr cm | rain 24hr cm | rain mn cm | humidity % | barometer mb |
| 20260505070050 | 11 | 124 | 12.9 | 27.4 | 0.00 | 0.00 | 0.00 | 89 | 1012.0 |
| 20260505064512 | 11 | 272 | 16.1 | 29.0 | 0.00 | 0.00 | 0.00 | 89 | 1012.0 |
| 20260505063053 | 10 | 266 | 16.1 | 30.6 | 0.00 | 0.00 | 0.00 | 90 | 1012.0 |
| 20260505061523 | 10 | 250 | 11.3 | 25.7 | 0.00 | 0.00 | 0.00 | 90 | 1012.0 |
| 20260505060106 | 10 | 272 | 14.5 | 29.0 | 0.00 | 0.00 | 0.00 | 90 | 1012.0 |
| 20260505054607 | 10 | 275 | 11.3 | 24.1 | 0.00 | 0.00 | 0.00 | 90 | 1012.1 |
| 20260505053102 | 10 | 262 | 12.9 | 25.7 | 0.00 | 0.00 | 0.00 | 90 | 1012.1 |
| 20260505051554 | 11 | 239 | 12.9 | 30.6 | 0.00 | 0.00 | 0.00 | 89 | 1012.1 |
| 20260505041550 | 10 | 124 | 11.3 | 22.5 | 0.00 | 0.00 | 0.00 | 89 | 1012.4 |
| 20260505040033 | 10 | 267 | 11.3 | 22.5 | 0.00 | 0.00 | 0.00 | 89 | 1012.5 |
| 20260505034515 | 10 | 124 | 12.9 | 22.5 | 0.00 | 0.00 | 0.00 | 89 | 1012.7 |
| 20260505033009 | 10 | 258 | 9.7 | 24.1 | 0.00 | 0.00 | 0.00 | 89 | 1012.8 |
| 20260505031539 | 10 | 273 | 9.7 | 25.7 | 0.00 | 0.00 | 0.00 | 88 | 1012.8 |
| 20260505030048 | 11 | 277 | 12.9 | 22.5 | 0.00 | 0.00 | 0.00 | 88 | 1012.9 |
| 20260505024607 | 11 | 124 | 12.9 | 22.5 | 0.00 | 0.00 | 0.00 | 88 | 1012.8 |
| 20260505023054 | 11 | 268 | 12.9 | 29.0 | 0.00 | 0.00 | 0.00 | 87 | 1012.9 |
| 20260505021521 | 11 | 269 | 16.1 | 33.8 | 0.00 | 0.00 | 0.00 | 86 | 1013.1 |
| 20260505020006 | 11 | 266 | 14.5 | 29.0 | 0.00 | 0.00 | 0.00 | 86 | 1012.7 |
| 20260505014512 | 11 | 124 | 14.5 | 32.2 | 0.00 | 0.00 | 0.00 | 85 | 1012.7 |
| 20260505013015 | 11 | 124 | 12.9 | 32.2 | 0.00 | 0.00 | 0.00 | 85 | 1012.3 |
| 20260505011517 | 11 | 124 | 16.1 | 30.6 | 0.00 | 0.00 | 0.00 | 84 | 1012.3 |
| 20260505010052 | 11 | 252 | 14.5 | 30.6 | 0.00 | 0.00 | 0.00 | 84 | 1012.1 |
| 20260505004547 | 11 | 124 | 16.1 | 32.2 | 0.00 | 0.00 | 0.00 | 83 | 1011.8 |
| 20260505003040 | 11 | 124 | 16.1 | 38.6 | 0.00 | 0.00 | 0.00 | 82 | 1011.8 |
| 20260505001543 | 11 | 124 | 17.7 | 33.8 | 0.00 | 0.00 | 0.00 | 81 | 1011.2 |
| 20260505000048 | 11 | 281 | 17.7 | 35.4 | 0.00 | 0.00 | 0.00 | 81 | 1010.9 |
| 20260504234501 | 11 | 260 | 16.1 | 29.0 | 0.00 | 0.00 | 0.00 | 81 | 1010.9 |
| 20260504233112 | 11 | 279 | 17.7 | 38.6 | 0.00 | 0.00 | 0.00 | 82 | 1010.9 |
| 20260504231504 | 11 | 272 | 17.7 | 33.8 | 0.00 | 0.00 | 0.00 | 81 | 1010.9 |
| 20260504230013 | 11 | 270 | 19.3 | 32.2 | 0.00 | 0.00 | 0.00 | 81 | 1010.8 |
| 20260504224504 | 12 | 239 | 19.3 | 33.8 | 0.00 | 0.00 | 0.00 | 80 | 1010.7 |
| 20260504223022 | 12 | 124 | 17.7 | 35.4 | 0.00 | 0.00 | 0.00 | 79 | 1010.8 |
| 20260504221501 | 12 | 124 | 16.1 | 32.2 | 0.00 | 0.00 | 0.00 | 80 | 1010.8 |
| 20260504220058 | 12 | 243 | 20.9 | 37.0 | 0.00 | 0.00 | 0.00 | 79 | 1010.7 |
| 20260504214511 | 12 | 124 | 19.3 | 37.0 | 0.00 | 0.00 | 0.00 | 80 | 1010.7 |
| 20260504213019 | 12 | 257 | 24.1 | 35.4 | 0.00 | 0.00 | 0.00 | 78 | 1010.6 |
| 20260504211524 | 12 | 275 | 16.1 | 38.6 | 0.00 | 0.00 | 0.00 | 78 | 1010.7 |
| 20260504210025 | 12 | 252 | 22.5 | 37.0 | 0.00 | 0.00 | 0.00 | 77 | 1010.6 |
| 20260504204543 | 12 | 124 | 19.3 | 38.6 | 0.00 | 0.00 | 0.00 | 76 | 1010.6 |
| 20260504203010 | 13 | 261 | 16.1 | 32.2 | 0.00 | 0.00 | 0.00 | 74 | 1010.4 |
| 20260504201520 | 13 | 124 | 17.7 | 38.6 | 0.00 | 0.00 | 0.00 | 75 | 1010.4 |
| 20260504200033 | 13 | 124 | 27.4 | 49.9 | 0.00 | 0.00 | 0.00 | 73 | 1010.2 |
| 20260504194516 | 13 | 124 | 19.3 | 43.5 | 0.00 | 0.00 | 0.00 | 73 | 1010.3 |
| 20260504193038 | 13 | 291 | 16.1 | 37.0 | 0.00 | 0.00 | 0.00 | 76 | 1010.6 |
| 20260504191516 | 13 | 245 | 19.3 | 37.0 | 0.00 | 0.00 | 0.00 | 78 | 1010.8 |
| 20260504190028 | 12 | 267 | 20.9 | 45.1 | 0.00 | 0.00 | 0.00 | 77 | 1011.0 |
| 20260504184516 | 13 | 235 | 19.3 | 40.2 | 0.00 | 0.00 | 0.00 | 77 | 1010.9 |
| 20260504183008 | 13 | 270 | 19.3 | 41.8 | 0.00 | 0.00 | 0.00 | 76 | 1010.9 |
| 20260504181513 | 13 | 242 | 24.1 | 46.7 | 0.00 | 0.00 | 0.00 | 76 | 1010.8 |
| 20260504180003 | 12 | 273 | 16.1 | 40.2 | 0.00 | 0.00 | 0.00 | 78 | 1010.7 |
| 20260504174619 | 12 | 250 | 25.7 | 49.9 | 0.00 | 0.00 | 0.00 | 79 | 1010.8 |
| 20260504173048 | 12 | 124 | 19.3 | 41.8 | 0.00 | 0.00 | 0.00 | 79 | 1010.8 |
| 20260504171527 | 12 | 124 | 24.1 | 41.8 | 0.00 | 0.00 | 0.00 | 78 | 1010.7 |
| 20260504081522 | 9 | 281 | 6.4 | 17.7 | 0.00 | 0.00 | 0.00 | 77 | 1011.5 |